Overview Statistics Trail Chart Weather Telemetry Raw packets
 

This is the latest recevied weather packets stored in our database for station/object 4S6DRJ-13. If no packets are shown the sender has not sent any weather packets the latest 10 day(s).

<< 30 31 32 33 34 35 36 >>
Time Temp. Humidity Pressure Rain* Wind** Luminosity Snow
1788400517 26.67° C 85% 1009.9 hPa 0 mm 0 m/s 177 W/m² -
1788400455 26.67° C 85% 1010 hPa 0 mm 0.89 m/s, 288° 163 W/m² -
1788400394 26.67° C 85% 1009.9 hPa 0 mm 0.45 m/s, 238° 157 W/m² -
1788400333 26.67° C 85% 1009.8 hPa 0 mm 0 m/s 153 W/m² -
1788400272 26.67° C 85% 1009.9 hPa 0 mm 0.45 m/s, 254° 147 W/m² -
1788400211 26.67° C 85% 1009.7 hPa 0 mm 1.34 m/s, 257° 138 W/m² -
1788400150 26.67° C 86% 1010 hPa 0 mm 1.34 m/s, 206° 126 W/m² -
1788400089 26.67° C 86% 1010 hPa 0 mm 0.89 m/s, 201° 116 W/m² -
1788400028 26.67° C 86% 1010.1 hPa 0 mm 2.24 m/s, 229° 107 W/m² -
1788399967 26.67° C 86% 1010.1 hPa 0 mm 3.58 m/s, 193° 101 W/m² -
1788399906 26.67° C 87% 1009.8 hPa 0 mm 1.79 m/s, 194° 94 W/m² -
1788399845 26.67° C 87% 1009.9 hPa 0.25 mm 1.79 m/s, 244° 87 W/m² -
1788399784 26.67° C 87% 1009.9 hPa 0.25 mm 2.68 m/s, 235° 82 W/m² -
1788399723 26.67° C 88% 1010 hPa 0.25 mm 2.68 m/s, 227° 77 W/m² -
1788399687 26.67° C 89% 1009.8 hPa 0.25 mm 1.34 m/s, 261° 75 W/m² -
1788399601 26.67° C 89% 1009.9 hPa 0.25 mm 1.79 m/s, 175° 71 W/m² -
1788399540 26.67° C 89% 1009.8 hPa 0.51 mm 0.45 m/s, 239° 66 W/m² -
1788399480 26.67° C 89% 1009.9 hPa 0.51 mm 1.79 m/s, 205° 71 W/m² -
1788399418 26.67° C 88% 1009.8 hPa 0.51 mm 0.45 m/s, 249° 87 W/m² -
1788399357 26.67° C 88% 1009.9 hPa 0.51 mm 0.89 m/s, 226° 98 W/m² -
1788399296 26.67° C 88% 1009.8 hPa 1.78 mm 0.45 m/s, 256° 97 W/m² -
1788399235 26.67° C 89% 1010 hPa 1.78 mm 0.45 m/s, 143° 94 W/m² -
1788399175 26.67° C 88% 1010 hPa 1.78 mm 1.79 m/s, 297° 94 W/m² -
1788399114 26.67° C 88% 1009.7 hPa 1.78 mm 1.79 m/s, 300° 93 W/m² -
1788399053 26.67° C 88% 1009.7 hPa 1.78 mm 0.89 m/s, 246° 91 W/m² -

* Rain latest hour (hover to see other rain measurements)
** Current wind speed in m/s (hover to see current wind gust speed)